Wind_Speed
9 10 11 11 10 8 8 6 4 3 4 5 5 6 5 5 4 5 6 7 8 8 8 8 8 8 7 7 7 8 7 7 7 6 6 6 6 6 5 4 4 5 4
11 10 11 11 10 8 7 7 6 5 4 5 5 5 5 5 5 5 6 7 8 9 9 9 9 9 9 9 9 9 9 9 8 8 8 8 7 7 6 6 6 6 6
10 11 11 10 9 7 7 7 7 7 6 5 6 6 6 6 6 7 8 8 9 10 10 10 10 10 10 10 10 11 11 10 10 10 10 9 9 9 9 8 8 8 8
9 10 10 9 9 8 9 9 8 8 6 6 5 6 6 7 8 8 8 9 10 12 12 12 11 12 12 12 12 12 13 12 12 12 12 12 11 11 11 11 11 10 10
9 10 11 10 10 10 10 11 10 7 7 7 6 6 6 7 8 7 8 10 11 12 13 13 13 13 13 13 14 14 14 14 13 13 13 13 14 13 13 13 13 13 12
10 11 12 10 10 10 10 10 9 7 7 6 6 6 7 8 8 8 9 10 11 12 13 14 15 14 14 14 15 15 15 16 15 15 15 15 15 16 16 16 16 15 14
11 12 12 11 10 10 9 9 8 8 7 7 6 6 8 8 8 9 10 11 12 13 14 15 16 16 16 16 16 16 16 16 17 17 17 17 17 17 18 17 17 17 16
12 12 12 11 11 11 9 9 8 8 7 7 7 8 9 9 9 10 11 12 13 14 15 16 17 18 18 18 18 18 17 18 18 18 18 18 18 19 19 19 19 19 19
13 13 13 12 12 11 10 9 8 8 7 7 8 9 9 9 10 11 12 13 13 14 15 16 16 17 18 18 18 19 19 19 20 20 20 21 21 21 21 22 22 21 21
13 13 12 12 12 12 10 10 9 9 8 8 9 9 9 9 10 11 12 13 14 14 15 15 16 18 19 19 20 20 20 20 20 22 22 23 23 24 24 24 24 24 24
13 13 12 12 12 12 10 10 10 10 9 9 9 10 10 10 10 11 12 12 13 13 14 15 16 18 19 20 20 21 21 21 22 22 23 23 24 24 24 24 25 25 26
14 13 13 13 12 12 10 11 11 11 11 10 10 10 11 12 12 12 12 12 12 13 14 15 16 17 19 20 21 22 23 23 23 24 24 24 25 26 26 26 26 27 27
13 14 14 13 12 10 9 10 11 12 12 11 10 11 12 12 13 13 13 13 13 13 14 14 16 17 19 21 21 22 23 24 25 26 26 26 26 26 26 27 27 27 27
12 13 12 11 10 8 8 9 10 10 11 11 10 12 13 13 13 13 13 14 14 15 15 16 17 18 19 20 21 23 24 25 26 26 26 27 27 26 26 27 27 27 28
12 12 13 11 9 8 8 9 10 10 11 11 11 12 13 13 13 14 15 15 16 16 16 17 18 19 20 20 21 22 23 23 24 25 26 26 26 26 26 26 27 27 27
14 14 13 11 9 9 10 10 11 11 11 12 12 13 13 13 14 14 15 16 17 17 18 18 19 19 20 21 21 21 21 21 22 22 23 24 25 25 25 26 27 28 28
15 14 12 12 11 11 11 12 12 13 13 13 14 14 14 14 15 15 15 16 17 18 18 19 19 19 20 20 20 20 19 19 19 21 23 24 24 25 26 27 27 27 28
16 14 13 12 12 13 14 14 14 15 15 15 16 16 16 16 16 16 16 17 18 18 18 18 18 19 19 19 19 19 19 20 20 21 22 23 24 25 26 27 28 29 29
17 16 15 15 15 15 15 15 15 16 16 16 16 17 18 18 17 17 17 17 17 17 17 17 17 17 18 18 18 18 19 20 20 21 22 23 24 25 26 28 29 29 30
18 18 17 16 16 16 16 16 16 16 17 17 17 18 18 18 18 18 18 19 19 18 17 17 17 18 18 18 19 19 19 20 21 23 24 24 25 26 27 28 29 30 31
20 19 17 16 16 16 16 17 17 17 18 18 18 19 19 19 18 18 18 19 19 19 18 18 18 19 19 20 20 20 21 21 22 24 25 26 27 27 28 29 30 31 32
21 20 19 18 18 18 18 18 18 18 19 19 19 19 19 19 19 19 19 19 19 19 19 19 19 19 20 20 21 21 22 23 23 24 25 26 26 27 29 30 30 32 33
22 22 22 20 19 18 19 18 19 19 20 20 20 20 20 20 20 20 20 20 20 20 20 20 20 20 20 21 22 22 22 23 24 25 26 27 28 28 29 30 31 32 33
23 21 20 19 18 19 19 20 20 20 21 21 21 21 21 21 21 20 20 21 21 21 21 21 21 21 21 21 22 23 24 25 25 26 26 27 28 29 30 30 30 31 32
23 21 20 19 20 20 20 20 20 21 21 21 21 21 22 21 21 21 21 21 22 22 22 21 21 22 22 22 23 24 25 25 26 27 28 29 29 30 31 32 32 33 34
22 21 20 19 20 20 20 21 21 22 22 21 21 21 21 21 20 20 21 21 21 21 21 21 21 21 22 23 24 24 26 27 28 29 30 30 31 32 32 33 34 35 35
Wind_Direction
343 341 345 345 340 333 328 324 314 312 302 293 287 291 292 285 269 255 241 231 226 225 227 231 229 235 245 245 246 246 249 254 256 258 258 261 263 263 260 260 276 287 295
341 340 338 338 335 331 323 327 315 301 291 282 276 279 282 281 266 252 241 236 230 229 230 233 237 243 249 252 254 251 251 252 254 256 256 261 262 261 259 260 269 276 281
334 332 336 332 325 324 325 319 315 300 288 285 277 275 270 270 267 253 245 241 235 234 235 236 240 246 250 251 254 255 256 255 253 254 257 258 261 264 263 262 267 271 274
328 331 333 327 318 314 319 318 312 303 287 285 289 283 274 267 265 257 252 247 243 242 242 241 243 248 250 251 253 255 257 258 254 254 256 257 259 263 263 265 268 270 273
329 328 327 319 314 313 317 317 313 298 281 280 280 277 274 267 263 260 257 253 252 249 245 244 244 246 248 253 255 255 255 255 254 254 256 257 259 262 263 265 268 270 270
331 328 326 317 317 312 310 315 314 296 290 286 278 276 275 268 260 259 258 256 255 254 250 246 246 247 250 253 256 255 256 257 256 255 256 258 261 263 265 266 268 269 270
326 327 329 330 321 317 310 310 306 297 293 288 280 278 278 274 266 261 258 257 256 257 255 253 251 251 254 255 255 257 256 257 258 257 256 257 261 264 265 266 267 268 269
320 323 324 326 322 317 309 303 304 299 295 294 287 281 279 277 273 268 262 260 259 260 260 258 259 257 258 257 255 256 256 258 259 260 258 259 262 264 265 266 268 268 269
318 317 319 320 318 315 304 298 299 298 296 291 287 283 280 277 275 272 267 265 265 263 263 263 261 260 260 260 258 257 257 259 261 261 260 262 264 265 265 265 267 269 269
320 316 314 315 316 310 303 299 298 299 297 290 288 284 281 279 276 273 271 269 267 266 265 263 262 262 262 261 260 259 260 260 262 262 263 263 265 266 266 267 268 270 271
313 316 312 308 310 310 302 299 297 294 290 282 281 282 281 280 282 277 276 275 271 270 269 265 261 262 262 262 262 262 261 262 263 263 264 265 266 267 267 267 269 270 270
305 309 307 307 304 307 300 297 289 290 287 280 278 280 282 282 285 281 276 275 275 275 273 270 264 264 265 265 266 265 262 262 263 264 265 265 267 268 267 267 268 269 270
306 311 308 307 307 304 302 300 296 293 287 282 284 283 285 288 286 285 278 274 274 276 276 275 272 270 268 267 269 268 266 265 265 266 265 266 267 268 268 267 268 270 271
304 312 313 311 309 307 309 304 304 300 296 291 294 296 291 289 289 285 283 282 279 279 278 276 276 275 273 272 271 270 269 266 265 265 265 266 267 267 268 269 269 271 273
305 311 315 314 308 309 308 306 305 306 306 297 298 302 299 295 294 290 287 286 286 285 282 280 278 278 277 276 274 274 273 270 268 266 266 267 268 269 269 270 272 273 275
297 302 306 306 305 305 301 302 305 305 307 305 303 304 303 301 298 293 291 290 288 286 283 280 280 281 281 278 279 280 275 273 271 268 267 269 270 271 270 272 273 274 276
292 292 294 295 297 301 300 299 302 304 305 305 303 302 302 301 300 297 294 292 290 288 284 281 281 281 281 279 279 279 276 275 275 273 270 269 269 269 272 273 274 275 276
291 289 290 291 292 296 299 299 299 300 300 300 300 299 298 296 297 297 295 294 294 290 287 284 281 280 279 280 278 277 276 276 278 277 273 271 272 273 276 277 277 277 278
287 286 286 287 286 289 291 292 294 297 299 300 298 297 296 294 294 294 293 294 294 292 290 286 283 282 283 283 281 279 278 278 277 276 274 274 276 279 279 278 279 279 280
280 282 283 284 286 286 286 288 291 294 295 296 297 297 297 296 293 292 293 291 291 289 288 287 286 286 286 286 284 283 282 281 280 279 279 279 279 281 280 280 280 281 282
278 277 277 279 284 286 287 288 289 292 293 293 295 295 295 296 294 293 294 293 291 289 286 286 285 285 285 285 285 285 285 284 284 284 283 281 281 281 281 283 283 284 284
279 275 275 278 281 284 286 287 288 291 292 292 293 293 293 294 294 293 293 293 292 290 285 285 285 285 285 285 286 288 287 286 286 287 287 285 285 285 285 286 287 287 286
276 274 272 273 276 279 283 286 287 290 292 293 293 292 292 292 292 292 291 290 291 291 289 286 283 282 282 282 284 285 287 289 289 289 288 289 289 290 290 289 290 289 290
272 273 268 268 273 278 281 285 287 288 290 292 292 291 291 291 291 291 291 290 289 290 289 287 286 287 286 284 283 285 287 290 291 291 291 291 292 292 293 292 291 290 290
268 269 271 271 274 277 279 283 285 287 289 291 291 290 291 289 288 287 289 290 289 288 288 288 287 288 288 288 289 291 292 293 294 295 294 294 294 294 293 293 293 293 292
266 268 270 270 273 275 277 280 283 285 288 290 290 290 290 286 284 286 289 290 290 289 289 288 287 287 288 290 291 292 293 294 295 296 295 294 294 295 294 294 293 293 292
Height
5897 5896 5894 5892 5891 5890 5889 5888 5887 5887 5887 5887 5887 5887 5886 5886 5886 5886 5886 5887 5889 5890 5891 5893 5894 5895 5896 5897 5898 5898 5899 5899 5900 5900 5901 5901 5901 5902 5902 5902 5902 5902 5902
5896 5895 5893 5892 5890 5889 5888 5888 5887 5886 5886 5886 5886 5886 5885 5885 5885 5885 5885 5886 5887 5888 5890 5891 5892 5894 5895 5896 5896 5897 5898 5898 5899 5899 5900 5900 5901 5900 5901 5901 5901 5901 5901
5895 5894 5892 5891 5889 5888 5887 5887 5886 5885 5884 5884 5884 5884 5884 5884 5884 5884 5884 5885 5886 5887 5888 5889 5891 5892 5893 5894 5894 5895 5896 5896 5897 5898 5898 5899 5899 5899 5900 5900 5900 5899 5899
5894 5892 5890 5889 5888 5887 5885 5884 5884 5883 5883 5883 5883 5882 5882 5883 5883 5883 5883 5884 5884 5885 5886 5888 5888 5889 5890 5891 5892 5893 5893 5894 5894 5895 5896 5897 5897 5897 5898 5898 5898 5898 5898
5892 5890 5889 5887 5887 5885 5884 5882 5881 5881 5881 5881 5881 5881 5880 5881 5881 5881 5882 5882 5882 5883 5884 5885 5886 5887 5888 5889 5889 5890 5891 5891 5892 5893 5893 5894 5894 5895 5895 5896 5896 5896 5896
5890 5889 5887 5885 5884 5883 5882 5881 5880 5879 5879 5879 5878 5878 5879 5879 5879 5879 5879 5880 5880 5881 5881 5882 5883 5884 5885 5886 5886 5887 5888 5888 5889 5890 5890 5891 5891 5892 5892 5892 5893 5893 5893
5889 5887 5885 5883 5882 5880 5879 5878 5878 5877 5877 5876 5876 5876 5877 5877 5877 5877 5877 5878 5878 5878 5879 5879 5880 5880 5881 5882 5883 5883 5884 5885 5886 5886 5887 5887 5888 5888 5889 5889 5889 5889 5889
5887 5885 5883 5882 5880 5879 5877 5877 5876 5875 5874 5874 5874 5874 5874 5874 5874 5874 5874 5875 5875 5876 5876 5876 5877 5877 5878 5878 5879 5880 5880 5881 5882 5882 5883 5883 5884 5884 5884 5885 5885 5885 5885
5884 5883 5881 5880 5879 5877 5876 5875 5875 5873 5872 5872 5872 5872 5872 5871 5871 5871 5871 5872 5872 5872 5873 5873 5873 5873 5874 5874 5875 5876 5876 5877 5878 5878 5878 5879 5879 5879 5880 5880 5880 5881 5881
5882 5881 5879 5878 5877 5876 5875 5874 5873 5872 5870 5870 5870 5870 5869 5869 5868 5868 5868 5868 5868 5869 5869 5869 5869 5870 5870 5870 5871 5871 5872 5872 5873 5873 5873 5874 5874 5874 5874 5875 5875 5875 5875
5879 5878 5877 5876 5875 5874 5873 5872 5871 5870 5869 5868 5868 5867 5867 5866 5865 5865 5865 5865 5865 5865 5865 5865 5865 5866 5866 5866 5866 5867 5867 5867 5868 5868 5868 5868 5868 5869 5868 5868 5868 5868 5868
5877 5876 5875 5874 5872 5871 5870 5869 5869 5868 5867 5866 5865 5865 5864 5864 5863 5862 5862 5862 5862 5862 5861 5861 5861 5861 5861 5861 5861 5861 5861 5861 5862 5862 5862 5863 5862 5862 5862 5862 5862 5862 5862
5874 5873 5872 5870 5869 5868 5867 5866 5866 5865 5864 5863 5863 5862 5861 5861 5860 5859 5859 5859 5858 5858 5857 5857 5857 5856 5856 5856 5855 5855 5855 5855 5856 5856 5856 5856 5856 5856 5856 5856 5856 5856 5855
5871 5870 5869 5867 5866 5865 5865 5864 5864 5862 5862 5861 5860 5859 5858 5857 5857 5856 5855 5855 5854 5854 5853 5853 5852 5851 5851 5850 5850 5849 5849 5848 5848 5849 5849 5849 5850 5850 5850 5849 5849 5849 5848
5869 5868 5866 5865 5864 5863 5863 5862 5861 5861 5860 5859 5858 5857 5855 5854 5853 5852 5852 5851 5850 5849 5849 5848 5847 5846 5846 5845 5844 5843 5842 5841 5841 5842 5842 5843 5843 5843 5843 5843 5842 5842 5841
5866 5865 5864 5863 5862 5862 5861 5860 5860 5859 5857 5856 5855 5854 5853 5851 5850 5849 5848 5847 5846 5845 5844 5843 5842 5841 5840 5839 5838 5837 5836 5835 5835 5836 5836 5837 5837 5837 5836 5836 5835 5835 5834
5862 5862 5861 5860 5860 5859 5858 5858 5857 5856 5855 5854 5852 5851 5849 5848 5847 5845 5844 5843 5842 5840 5839 5838 5837 5836 5835 5834 5833 5833 5832 5831 5831 5830 5830 5830 5830 5830 5830 5829 5829 5828 5827
5858 5858 5857 5857 5857 5856 5855 5854 5853 5852 5851 5850 5848 5847 5846 5844 5843 5841 5840 5839 5837 5835 5834 5833 5832 5831 5830 5829 5829 5828 5827 5826 5826 5825 5825 5824 5824 5823 5823 5822 5821 5820 5819
5854 5854 5853 5853 5853 5852 5851 5850 5850 5848 5847 5846 5844 5843 5842 5840 5839 5837 5836 5834 5832 5831 5830 5828 5828 5827 5826 5825 5824 5823 5822 5822 5821 5820 5819 5818 5818 5817 5816 5815 5814 5812 5811
5849 5849 5849 5849 5848 5848 5847 5846 5845 5844 5843 5842 5840 5839 5837 5836 5834 5833 5831 5829 5828 5827 5825 5824 5823 5822 5821 5820 5819 5818 5818 5817 5816 5814 5813 5812 5811 5810 5808 5807 5806 5804 5803
5844 5844 5844 5844 5844 5843 5842 5842 5841 5840 5839 5837 5836 5834 5833 5831 5829 5828 5826 5825 5823 5822 5820 5820 5819 5818 5817 5815 5814 5813 5812 5811 5810 5808 5807 5806 5804 5802 5801 5800 5798 5796 5794
5839 5839 5839 5838 5838 5838 5838 5837 5836 5835 5834 5833 5831 5829 5828 5826 5824 5823 5822 5821 5819 5817 5816 5815 5813 5812 5811 5810 5809 5808 5806 5805 5804 5802 5801 5799 5797 5795 5793 5791 5789 5787 5785
5833 5833 5833 5833 5833 5833 5833 5832 5831 5830 5828 5827 5826 5824 5822 5821 5819 5818 5817 5816 5814 5813 5811 5809 5808 5806 5805 5804 5803 5802 5801 5799 5798 5796 5794 5792 5790 5788 5786 5783 5781 5779 5777
5827 5827 5827 5827 5827 5827 5827 5826 5825 5824 5823 5822 5820 5818 5817 5815 5814 5812 5811 5810 5809 5807 5806 5804 5803 5801 5800 5799 5797 5796 5795 5793 5791 5789 5787 5785 5783 5780 5778 5775 5773 5770 5768
5821 5821 5821 5821 5822 5821 5821 5820 5819 5818 5817 5816 5814 5813 5811 5810 5808 5807 5806 5804 5803 5801 5800 5799 5797 5796 5794 5793 5791 5790 5788 5786 5784 5782 5780 5777 5775 5773 5770 5767 5765 5762 5759
5814 5815 5815 5815 5815 5815 5815 5815 5814 5812 5811 5810 5809 5807 5806 5804 5803 5801 5800 5798 5797 5795 5794 5792 5791 5789 5788 5787 5785 5783 5781 5779 5777 5775 5772 5770 5767 5764 5762 5759 5755 5752 5749